Погода в Мезинце

Россия / Тамбовская область     53°29′06″N   40°37′36″E
темп.,
°C
ветер,
м/с
пор.,
м/с
влажн.,
%
обл.,
%
осадки,
мм/ч
давл.,
гПа
погр.,
м
17 октября, вс
вс1700:00+8юз4106134 0.0 1017294
03:00+6юз377790 0.0 1017138
06:00+5юз368562 0.0 1017132
09:00+7юз468057 0.0 1017241
12:00+10зюз466659 0.0 1017737
15:00+12зюз455618 0.0 10151032
18:00+8зюз346861 0.0 101650
21:00+7зюз357223 0.0 101589
18 октября, пн
пн1800:00+6зюз368161 0.0 1015117
03:00+5зюз3489100 0.0 101480
06:00+4юз379198 0.0 1014149
09:00+6зюз597191 0.0 1014392
12:00+9зюз685726 0.0 1012964
15:00+9з6962100 0.1 10111091
18:00+8з6968100 0.1 1012797
21:00+7зсз5877100 0.1 1013685
19 октября, вт
вт1900:00+5зсз2586100 0.1 1013193
03:00+4зсз2483100 0.1 1013125
06:00+4зсз2383100 0.0 1013109
09:00+4зсз357399 0.0 1014352
12:00+7сз4561100 0.0 10141092
15:00+5сз6664100 0.1 10141001
18:00+4ссз476487 0.0 1016863
21:00+2сз486823 0.0 1017361
20 октября, ср
ср2000:00+1сз499148 0.0 1017532
03:00+1ссз598698 0.0 1019655
06:00+1сз498779 0.1 1020483
09:00+2сз587798 0.1 1022637
12:00+4сз665999 0.1 10221205
15:00+4зсз674773 0.1 10231323
18:00+1зсз35525 0.0 1024120
21:000з236111 0.0 102441
21 октября, чт
чт2100:00−1юз35725 0.0 1024107
03:00−1ююз4978100 0.0 1023219
06:000ююз51276100 0.0 1022322
09:00+2ююз7146698 0.0 1020444
12:00+6ююз81555100 0.0 1018613
15:00+6ююз81654100 0.0 1016613
18:00+6ююз81752100 0.0 1014569
21:00+7ююз81849100 0.0 1013638